Radioactive Concentration measured by Seawater Radiation Monitor near Fukushima Daiichi Nuclear Power Station
Date,Time,Cs137(Bq/L),Cs134(Bq/L),Total β(Bq/L)
2020/03/13,00:00,0.18,ND,24
2020/03/13,00:10,0.19,ND,22
2020/03/13,00:20,0.20,ND,20
2020/03/13,00:30,0.19,ND,18
2020/03/13,00:40,0.20,ND,20
2020/03/13,00:50,0.18,ND,22
2020/03/13,01:00,0.19,ND,20
2020/03/13,01:10,0.20,ND,23
2020/03/13,01:20,0.21,ND,23
2020/03/13,01:30,0.20,ND,24
2020/03/13,01:40,0.18,ND,24
2020/03/13,01:50,0.17,ND,23
2020/03/13,02:00,0.17,ND,21
2020/03/13,02:10,0.16,ND,18
2020/03/13,02:20,0.14,ND,19
2020/03/13,02:30,0.15,ND,19
2020/03/13,02:40,0.14,ND,20
2020/03/13,02:50,0.14,ND,20
2020/03/13,03:00,0.13,ND,22
2020/03/13,03:10,0.12,ND,23
2020/03/13,03:20,0.12,ND,24
2020/03/13,03:30,0.081,ND,25
2020/03/13,03:40,0.13,ND,26
2020/03/13,03:50,0.13,ND,24
2020/03/13,04:00,0.14,ND,22
2020/03/13,04:10,0.13,ND,25
2020/03/13,04:20,0.14,ND,23
2020/03/13,04:30,0.15,ND,24
2020/03/13,04:40,0.14,ND,22
2020/03/13,04:50,0.14,ND,24
2020/03/13,05:00,0.15,ND,24
2020/03/13,05:10,0.15,ND,23
2020/03/13,05:20,0.13,ND,23
2020/03/13,05:30,0.13,ND,18
2020/03/13,05:40,0.13,ND,20
2020/03/13,05:50,0.13,ND,20
2020/03/13,06:00,0.10,ND,23
2020/03/13,06:10,0.13,ND,22
2020/03/13,06:20,0.12,ND,22
2020/03/13,06:30,0.11,ND,25
2020/03/13,06:40,0.10,ND,24
2020/03/13,06:50,0.095,ND,26
2020/03/13,07:00,0.12,ND,23
2020/03/13,07:10,0.11,ND,21
2020/03/13,07:20,0.13,ND,22
2020/03/13,07:30,0.14,ND,23
2020/03/13,07:40,0.15,ND,22
2020/03/13,07:50,0.15,ND,23
2020/03/13,08:00,0.15,ND,25
2020/03/13,08:10,0.16,ND,28
2020/03/13,08:20,0.16,ND,28
2020/03/13,08:30,0.16,ND,27
2020/03/13,08:40,0.16,ND,29
2020/03/13,08:50,0.19,ND,29
2020/03/13,09:00,0.19,ND,29
2020/03/13,09:10,0.18,ND,29
2020/03/13,09:20,0.18,ND,28
2020/03/13,09:30,0.19,ND,26
2020/03/13,09:40,0.18,ND,25
2020/03/13,09:50,0.16,ND,25
2020/03/13,10:00,0.16,ND,24
2020/03/13,10:10,0.16,ND,22
2020/03/13,10:20,0.17,ND,24
2020/03/13,10:30,-,-,-
2020/03/13,10:40,-,-,-
2020/03/13,10:50,-,-,-
2020/03/13,11:00,-,-,-
2020/03/13,11:10,-,-,-
2020/03/13,11:20,-,-,-
2020/03/13,11:30,-,-,-
2020/03/13,11:40,-,-,31
2020/03/13,11:50,-,-,30
2020/03/13,12:00,-,-,30
2020/03/13,12:10,0.20,ND,31
2020/03/13,12:20,0.20,ND,30
2020/03/13,12:30,0.22,ND,31
2020/03/13,12:40,0.24,ND,29
2020/03/13,12:50,0.22,ND,28
2020/03/13,13:00,0.22,ND,27
2020/03/13,13:10,0.22,ND,23
2020/03/13,13:20,0.20,ND,23
2020/03/13,13:30,0.18,ND,23
2020/03/13,13:40,0.14,ND,21
2020/03/13,13:50,0.14,ND,22
2020/03/13,14:00,0.12,ND,23
2020/03/13,14:10,0.097,ND,23
2020/03/13,14:20,0.12,ND,27
2020/03/13,14:30,0.12,ND,24
2020/03/13,14:40,0.11,ND,26
2020/03/13,14:50,0.11,ND,24
2020/03/13,15:00,0.11,ND,24
2020/03/13,15:10,0.12,ND,25
2020/03/13,15:20,0.10,ND,24
2020/03/13,15:30,0.11,ND,27
2020/03/13,15:40,0.088,ND,26
2020/03/13,15:50,0.12,ND,27
2020/03/13,16:00,0.12,ND,28
2020/03/13,16:10,0.12,ND,28
2020/03/13,16:20,0.12,ND,29
2020/03/13,16:30,0.13,ND,29
2020/03/13,16:40,0.14,ND,31
2020/03/13,16:50,0.13,ND,30
2020/03/13,17:00,0.14,ND,31
2020/03/13,17:10,0.13,ND,32
2020/03/13,17:20,0.14,ND,28
2020/03/13,17:30,0.15,ND,24
2020/03/13,17:40,0.15,ND,21
2020/03/13,17:50,0.19,ND,22
2020/03/13,18:00,0.18,ND,21
2020/03/13,18:10,0.19,ND,21
2020/03/13,18:20,0.18,ND,23
2020/03/13,18:30,0.18,ND,24
2020/03/13,18:40,0.16,ND,23
2020/03/13,18:50,0.14,ND,24
2020/03/13,19:00,0.15,ND,24
2020/03/13,19:10,0.15,ND,24
2020/03/13,19:20,0.15,ND,24
2020/03/13,19:30,0.14,ND,26
2020/03/13,19:40,0.13,ND,28
2020/03/13,19:50,0.14,ND,28
2020/03/13,20:00,0.14,ND,26
2020/03/13,20:10,0.13,ND,26
2020/03/13,20:20,0.14,ND,25
2020/03/13,20:30,0.14,ND,26
2020/03/13,20:40,0.17,ND,26
2020/03/13,20:50,0.15,ND,26
2020/03/13,21:00,0.14,ND,29
2020/03/13,21:10,0.14,ND,30
2020/03/13,21:20,0.16,ND,29
2020/03/13,21:30,0.15,ND,26
2020/03/13,21:40,0.16,ND,27
2020/03/13,21:50,0.16,ND,27
2020/03/13,22:00,0.15,ND,26
2020/03/13,22:10,0.16,ND,25
2020/03/13,22:20,0.15,ND,24
2020/03/13,22:30,0.17,ND,26
2020/03/13,22:40,0.16,ND,27
2020/03/13,22:50,0.16,ND,27
2020/03/13,23:00,0.18,ND,27
2020/03/13,23:10,0.16,ND,26
2020/03/13,23:20,0.14,ND,28
2020/03/13,23:30,0.14,ND,24
2020/03/13,23:40,0.13,ND,23
2020/03/13,23:50,0.13,ND,23
